Orbital Elements at Epoch 2459200.5 (2020-Dec-17.0) TDB
Reference: JPL 35 (heliocentric ecliptic J2000)
Element | Value | Uncertainty (1-sigma) | Units |
e | .04733728316882196 | 4.6049e-08 | |
a | 3.090196881480184 | 1.6823e-08 | au |
q | 2.943915356654146 | 1.4191e-07 | au |
i | 14.85371082907083 | 4.8813e-06 | deg |
node | 342.9942999594999 | 1.3766e-05 | deg |
peri | 19.05317079938126 | 4.3004e-05 | deg |
M | 63.69903397229966 | 3.9332e-05 | deg |
tp | 2458849.418458083598 (2019-Dec-31.91845808) | 0.00021735 | TDB |
period | 1984.164393213041 5.43 | 1.6203e-05 4.436e-08 | d yr |
n | .1814365791621917 | 1.4816e-09 | deg/d |
Q | 3.236478406306222 | 1.7619e-08 | au |
|
| | Orbit Determination Parameters
Additional Information
|